Location: Unspecified
(0.0000°N, 0.0000°E)
Time: 22:42:09
(UTC+00:00)

S-56A Canister/Altair - Pass Details

Date: 02 October 2020
Orbit: 633 x 2499 km, 38.9° (Epoch: 27 October)

Event Time Altitude Azimuth Distance (km) Brightness Sun altitude
Rises 23:45:30 0° 275° (W) 3,917 - -85.8°
Reaches altitude 10° 23:50:57 10° 241° (WSW) 2,524 - -85.9°
Maximum altitude 23:52:29 11° 225° (SW) 2,344 - -85.9°
Drops below altitude 10° 23:53:57 10° 209° (SSW) 2,321 - -85.8°
Sets 23:58:11 0° 172° (S) 3,023 - -85.3°
